Time,TemperatureF,DewpointF,PressureIn,WindDirection,WindDirectionDegrees,WindSpeedMPH,WindSpeedGustMPH,Humidity,HourlyPrecipIn,Conditions,Clouds,dailyrainin,SoftwareType,DateUTC
2013-06-12 00:01:00,69.0,66.3,29.99,NNW,333,0.0,1.3,91,0.00,,CLR,0.00,VWS V14.01,2013-06-12 04:01:00,
2013-06-12 00:02:00,68.9,66.2,29.99,NNW,333,0.0,1.3,91,0.00,,CLR,0.00,VWS V14.01,2013-06-12 04:02:00,
2013-06-12 00:03:00,68.9,66.2,29.99,NNW,333,1.3,1.3,91,0.00,,CLR,0.00,VWS V14.01,2013-06-12 04:03:00,
2013-06-12 00:04:00,68.9,66.2,29.99,NNW,333,0.0,1.3,91,0.00,,CLR,0.00,VWS V14.01,2013-06-12 04:04:00,
2013-06-12 00:06:00,68.9,66.5,29.99,NNW,333,0.0,0.0,92,0.00,,CLR,0.00,VWS V14.01,2013-06-12 04:06:00,
2013-06-12 00:11:00,68.9,66.5,29.99,NNW,333,0.0,0.0,92,0.00,,CLR,0.00,VWS V14.01,2013-06-12 04:11:00,
2013-06-12 00:16:00,68.9,66.5,29.99,NNW,333,0.0,0.0,92,0.00,,CLR,0.00,VWS V14.01,2013-06-12 04:16:00,
2013-06-12 00:21:00,68.8,66.1,29.99,NNW,333,0.0,0.0,91,0.00,,CLR,0.00,VWS V14.01,2013-06-12 04:21:00,
2013-06-12 00:26:00,68.6,65.9,29.99,NNW,333,1.3,1.3,91,0.00,,CLR,0.00,VWS V14.01,2013-06-12 04:26:00,
2013-06-12 00:31:00,68.4,65.7,29.99,NNW,333,0.0,0.0,91,0.00,,CLR,0.00,VWS V14.01,2013-06-12 04:31:00,
2013-06-12 00:36:00,68.5,65.8,29.99,NNW,333,0.0,0.0,91,0.00,,CLR,0.00,VWS V14.01,2013-06-12 04:36:00,
2013-06-12 00:41:00,68.5,65.8,29.99,NNW,333,0.0,0.0,91,0.00,,CLR,0.00,VWS V14.01,2013-06-12 04:41:00,
2013-06-12 00:46:00,68.5,66.1,29.99,NNW,333,0.0,0.0,92,0.00,,CLR,0.00,VWS V14.01,2013-06-12 04:46:00,
2013-06-12 00:51:00,68.4,66.0,29.99,NNW,333,0.0,0.0,92,0.00,,CLR,0.00,VWS V14.01,2013-06-12 04:51:00,
2013-06-12 00:56:00,68.3,65.9,29.99,NNW,333,0.0,0.0,92,0.00,,CLR,0.00,VWS V14.01,2013-06-12 04:56:00,
2013-06-12 01:01:00,68.2,65.8,29.99,NNW,333,0.0,0.0,92,0.00,,CLR,0.00,VWS V14.01,2013-06-12 05:01:00,
2013-06-12 01:06:00,68.1,65.7,29.99,NNW,333,0.0,0.0,92,0.00,,CLR,0.00,VWS V14.01,2013-06-12 05:06:00,
2013-06-12 01:11:00,67.9,65.5,29.99,NNW,333,0.0,0.0,92,0.00,,CLR,0.00,VWS V14.01,2013-06-12 05:11:00,
2013-06-12 01:16:00,67.9,65.5,29.99,NNW,333,0.0,0.0,92,0.00,,CLR,0.00,VWS V14.01,2013-06-12 05:16:00,
2013-06-12 01:21:00,67.9,65.5,29.98,NNW,333,0.0,0.0,92,0.00,,CLR,0.00,VWS V14.01,2013-06-12 05:21:00,
2013-06-12 01:26:00,67.7,65.3,29.98,NNW,333,0.0,0.0,92,0.00,,CLR,0.00,VWS V14.01,2013-06-12 05:26:00,
2013-06-12 01:32:00,67.5,65.1,29.99,NNW,333,0.0,0.0,92,0.00,,CLR,0.00,VWS V14.01,2013-06-12 05:32:00,
2013-06-12 01:37:00,67.3,64.9,29.99,NNW,333,0.0,0.0,92,0.00,,CLR,0.00,VWS V14.01,2013-06-12 05:37:00,
2013-06-12 01:42:00,67.2,64.8,29.98,NNW,333,0.0,0.0,92,0.00,,CLR,0.00,VWS V14.01,2013-06-12 05:42:00,
2013-06-12 01:47:00,67.1,64.7,29.98,NNW,333,0.0,1.3,92,0.00,,CLR,0.00,VWS V14.01,2013-06-12 05:47:00,
2013-06-12 01:52:00,66.9,64.5,29.98,NNW,333,0.0,0.0,92,0.00,,CLR,0.00,VWS V14.01,2013-06-12 05:52:00,
2013-06-12 01:58:00,66.7,64.6,29.98,NNW,333,0.0,0.0,93,0.00,,CLR,0.00,VWS V14.01,2013-06-12 05:58:00,
2013-06-12 02:03:00,66.6,64.5,29.98,NNW,333,0.0,1.3,93,0.00,,CLR,0.00,VWS V14.01,2013-06-12 06:03:00,
2013-06-12 02:08:00,66.5,64.4,29.98,NNW,333,0.0,0.0,93,0.00,,CLR,0.00,VWS V14.01,2013-06-12 06:08:00,
2013-06-12 02:13:00,66.5,64.4,29.97,NNW,333,0.0,0.0,93,0.00,,CLR,0.00,VWS V14.01,2013-06-12 06:13:00,
2013-06-12 02:18:00,66.4,64.3,29.97,NNW,333,0.0,0.0,93,0.00,,CLR,0.00,VWS V14.01,2013-06-12 06:18:00,
2013-06-12 02:23:00,66.2,64.1,29.97,NNW,333,0.0,0.0,93,0.00,,CLR,0.00,VWS V14.01,2013-06-12 06:23:00,
2013-06-12 02:28:00,66.2,64.1,29.97,NNW,333,0.0,0.0,93,0.00,,CLR,0.00,VWS V14.01,2013-06-12 06:28:00,
2013-06-12 02:33:00,66.2,64.1,29.97,NNW,333,0.0,0.0,93,0.00,,CLR,0.00,VWS V14.01,2013-06-12 06:33:00,
2013-06-12 02:38:00,66.1,64.0,29.97,NNW,333,0.0,0.0,93,0.00,,CLR,0.00,VWS V14.01,2013-06-12 06:38:00,
2013-06-12 02:43:00,66.0,63.9,29.97,NNW,333,0.0,0.0,93,0.00,,CLR,0.00,VWS V14.01,2013-06-12 06:43:00,
2013-06-12 02:48:00,66.0,63.9,29.97,NNW,333,0.0,1.3,93,0.00,,CLR,0.00,VWS V14.01,2013-06-12 06:48:00,
2013-06-12 02:53:00,65.9,63.8,29.97,NNW,333,0.0,0.0,93,0.00,,CLR,0.00,VWS V14.01,2013-06-12 06:53:00,
2013-06-12 02:58:00,65.9,63.8,29.97,NNW,333,0.0,0.0,93,0.00,,CLR,0.00,VWS V14.01,2013-06-12 06:58:00,
2013-06-12 03:03:00,65.9,63.8,29.97,NNW,333,0.0,0.0,93,0.00,,CLR,0.00,VWS V14.01,2013-06-12 07:03:00,
2013-06-12 03:08:00,65.8,63.7,29.97,NNW,333,0.0,0.0,93,0.00,,CLR,0.00,VWS V14.01,2013-06-12 07:08:00,
2013-06-12 03:13:00,65.7,63.6,29.97,NNW,333,0.0,0.0,93,0.00,,CLR,0.00,VWS V14.01,2013-06-12 07:13:00,
2013-06-12 03:18:00,65.6,63.5,29.97,NNW,333,0.0,0.0,93,0.00,,CLR,0.00,VWS V14.01,2013-06-12 07:18:00,
2013-06-12 03:23:00,65.6,63.8,29.97,NNW,333,0.0,0.0,94,0.00,,CLR,0.00,VWS V14.01,2013-06-12 07:23:00,
2013-06-12 03:28:00,65.6,63.8,29.97,NNW,333,0.0,0.0,94,0.00,,CLR,0.00,VWS V14.01,2013-06-12 07:28:00,
2013-06-12 03:33:00,65.5,63.7,29.97,NNW,333,0.0,0.0,94,0.00,,CLR,0.00,VWS V14.01,2013-06-12 07:33:00,
2013-06-12 03:38:00,65.5,63.7,29.96,NNW,333,0.0,0.0,94,0.00,,CLR,0.00,VWS V14.01,2013-06-12 07:38:00,
2013-06-12 03:43:00,65.6,63.8,29.96,NNW,333,0.0,0.0,94,0.00,,CLR,0.00,VWS V14.01,2013-06-12 07:43:00,
2013-06-12 03:48:00,65.6,63.8,29.96,NNW,333,0.0,0.0,94,0.00,,CLR,0.00,VWS V14.01,2013-06-12 07:48:00,
2013-06-12 03:53:00,65.4,63.6,29.96,NNW,333,0.0,2.6,94,0.00,,CLR,0.00,VWS V14.01,2013-06-12 07:53:00,
2013-06-12 03:58:00,65.3,63.5,29.96,NNW,333,0.0,0.0,94,0.00,,CLR,0.00,VWS V14.01,2013-06-12 07:58:00,
2013-06-12 04:03:00,65.2,63.4,29.96,NNW,333,0.0,0.0,94,0.00,,CLR,0.00,VWS V14.01,2013-06-12 08:03:00,
2013-06-12 04:08:00,65.0,63.2,29.96,NNW,333,0.0,1.3,94,0.00,,CLR,0.00,VWS V14.01,2013-06-12 08:08:00,
2013-06-12 04:13:00,64.9,63.1,29.96,NNW,333,0.0,1.3,94,0.00,,CLR,0.00,VWS V14.01,2013-06-12 08:13:00,
2013-06-12 04:18:00,64.9,63.1,29.96,NNW,333,0.0,0.0,94,0.00,,CLR,0.00,VWS V14.01,2013-06-12 08:18:00,
2013-06-12 04:23:00,64.9,63.1,29.96,NNW,333,0.0,0.0,94,0.00,,CLR,0.00,VWS V14.01,2013-06-12 08:23:00,
2013-06-12 04:28:00,65.0,63.2,29.96,NNW,333,0.0,0.0,94,0.00,,CLR,0.00,VWS V14.01,2013-06-12 08:28:00,
2013-06-12 04:34:00,64.9,63.1,29.96,NNW,333,0.0,0.0,94,0.00,,CLR,0.00,VWS V14.01,2013-06-12 08:34:00,
2013-06-12 04:39:00,64.9,63.1,29.96,NNW,333,0.0,0.0,94,0.00,,CLR,0.00,VWS V14.01,2013-06-12 08:39:00,
2013-06-12 04:44:00,64.8,63.0,29.96,NNW,333,0.0,0.0,94,0.00,,CLR,0.00,VWS V14.01,2013-06-12 08:44:00,
2013-06-12 04:49:00,64.8,63.0,29.97,NNW,333,0.0,0.0,94,0.00,,CLR,0.00,VWS V14.01,2013-06-12 08:49:00,
2013-06-12 04:54:00,64.7,62.9,29.97,NNW,333,0.0,0.0,94,0.00,,CLR,0.00,VWS V14.01,2013-06-12 08:54:00,
2013-06-12 04:59:00,64.5,62.7,29.97,NNW,333,0.0,0.0,94,0.00,,CLR,0.00,VWS V14.01,2013-06-12 08:59:00,
2013-06-12 05:04:00,64.5,62.7,29.96,NNW,333,0.0,0.0,94,0.00,,CLR,0.00,VWS V14.01,2013-06-12 09:04:00,
2013-06-12 05:09:00,64.5,62.7,29.96,NNW,333,0.0,0.0,94,0.00,,CLR,0.00,VWS V14.01,2013-06-12 09:09:00,
2013-06-12 05:14:00,64.5,62.7,29.96,NNW,333,0.0,0.0,94,0.00,,CLR,0.00,VWS V14.01,2013-06-12 09:14:00,
2013-06-12 05:19:00,64.4,62.9,29.96,NNW,333,0.0,0.0,95,0.00,,CLR,0.00,VWS V14.01,2013-06-12 09:19:00,
2013-06-12 05:24:00,64.4,62.9,29.96,NNW,333,0.0,0.0,95,0.00,,CLR,0.00,VWS V14.01,2013-06-12 09:24:00,
2013-06-12 05:29:00,64.3,62.8,29.97,NNW,333,0.0,0.0,95,0.00,,CLR,0.00,VWS V14.01,2013-06-12 09:29:00,
2013-06-12 05:34:00,64.3,62.8,29.97,NNW,333,0.0,0.0,95,0.00,,CLR,0.00,VWS V14.01,2013-06-12 09:34:00,
2013-06-12 05:39:00,64.3,62.8,29.97,NNW,333,0.0,1.3,95,0.00,,CLR,0.00,VWS V14.01,2013-06-12 09:39:00,
2013-06-12 05:44:00,64.3,62.8,29.97,NNW,333,0.0,0.0,95,0.00,,CLR,0.00,VWS V14.01,2013-06-12 09:44:00,
2013-06-12 05:49:00,64.2,62.7,29.97,NNW,333,0.0,0.0,95,0.00,,CLR,0.00,VWS V14.01,2013-06-12 09:49:00,
2013-06-12 05:54:00,64.1,62.6,29.97,NNW,333,0.0,0.0,95,0.00,,CLR,0.00,VWS V14.01,2013-06-12 09:54:00,
2013-06-12 05:59:00,64.0,62.5,29.98,NNW,333,0.0,0.0,95,0.00,,CLR,0.00,VWS V14.01,2013-06-12 09:59:00,
2013-06-12 06:04:00,64.0,62.5,29.98,NNW,333,0.0,0.0,95,0.00,,CLR,0.00,VWS V14.01,2013-06-12 10:04:00,
2013-06-12 06:09:00,63.9,62.4,29.98,NNW,333,0.0,0.0,95,0.00,,CLR,0.00,VWS V14.01,2013-06-12 10:09:00,
2013-06-12 06:14:00,63.9,62.4,29.98,NNW,333,0.0,0.0,95,0.00,,CLR,0.00,VWS V14.01,2013-06-12 10:14:00,
2013-06-12 06:19:00,63.9,62.4,29.98,NNW,333,0.0,0.0,95,0.00,,CLR,0.00,VWS V14.01,2013-06-12 10:19:00,
2013-06-12 06:24:00,63.9,62.4,29.99,NNW,333,0.0,0.0,95,0.00,,CLR,0.00,VWS V14.01,2013-06-12 10:24:00,
2013-06-12 06:29:00,63.9,62.4,29.99,NNW,333,0.0,0.0,95,0.00,,CLR,0.00,VWS V14.01,2013-06-12 10:29:00,
2013-06-12 06:34:00,64.1,62.6,29.99,NNW,333,0.0,0.0,95,0.00,,CLR,0.00,VWS V14.01,2013-06-12 10:34:00,
2013-06-12 06:39:00,64.2,62.7,29.99,NNW,333,0.0,0.0,95,0.00,,CLR,0.00,VWS V14.01,2013-06-12 10:39:00,
2013-06-12 06:44:00,64.2,62.7,29.99,NNW,333,0.0,0.0,95,0.00,,CLR,0.00,VWS V14.01,2013-06-12 10:44:00,
2013-06-12 06:49:00,64.2,62.7,29.99,NNW,333,0.0,0.0,95,0.00,,CLR,0.00,VWS V14.01,2013-06-12 10:49:00,
2013-06-12 06:54:00,64.3,62.8,29.99,NNW,333,0.0,0.0,95,0.00,,CLR,0.00,VWS V14.01,2013-06-12 10:54:00,
2013-06-12 06:59:00,64.6,63.1,29.99,NNW,333,0.0,0.0,95,0.00,,CLR,0.00,VWS V14.01,2013-06-12 10:59:00,
2013-06-12 07:04:00,64.9,63.4,29.99,NNW,333,0.0,0.0,95,0.00,,CLR,0.00,VWS V14.01,2013-06-12 11:04:00,
2013-06-12 07:09:00,65.2,64.0,29.99,NNW,333,0.0,0.0,96,0.00,,CLR,0.00,VWS V14.01,2013-06-12 11:09:00,
2013-06-12 07:14:00,65.4,63.9,29.99,NNW,333,0.0,0.0,95,0.00,,CLR,0.00,VWS V14.01,2013-06-12 11:14:00,
2013-06-12 07:20:00,65.6,64.1,29.99,NNW,333,0.0,0.0,95,0.00,,CLR,0.00,VWS V14.01,2013-06-12 11:20:00,
2013-06-12 07:25:00,65.9,64.4,29.99,NNW,333,0.0,0.0,95,0.00,,CLR,0.00,VWS V14.01,2013-06-12 11:25:00,
2013-06-12 07:30:00,66.3,65.1,29.99,NNW,333,0.0,0.0,96,0.00,,CLR,0.00,VWS V14.01,2013-06-12 11:30:00,
2013-06-12 07:35:00,66.9,65.4,30.00,NNW,333,0.0,0.0,95,0.00,,CLR,0.00,VWS V14.01,2013-06-12 11:35:00,
2013-06-12 07:40:00,67.1,65.6,29.99,NNW,333,0.0,0.0,95,0.00,,CLR,0.00,VWS V14.01,2013-06-12 11:40:00,
2013-06-12 07:45:00,67.5,66.0,30.00,NNW,333,0.0,0.0,95,0.00,,CLR,0.00,VWS V14.01,2013-06-12 11:45:00,
2013-06-12 07:50:00,67.7,66.2,30.00,NNW,333,0.0,0.0,95,0.00,,CLR,0.00,VWS V14.01,2013-06-12 11:50:00,
2013-06-12 07:55:00,68.0,66.5,30.00,NNW,333,0.0,0.0,95,0.00,,CLR,0.00,VWS V14.01,2013-06-12 11:55:00,
2013-06-12 08:00:00,68.2,66.7,30.00,NNW,333,0.0,0.0,95,0.00,,CLR,0.00,VWS V14.01,2013-06-12 12:00:00,
2013-06-12 08:05:00,68.3,66.8,30.00,NNW,333,0.0,0.0,95,0.00,,CLR,0.00,VWS V14.01,2013-06-12 12:05:00,
2013-06-12 08:10:00,68.7,67.2,30.00,NNW,333,0.0,0.0,95,0.00,,CLR,0.00,VWS V14.01,2013-06-12 12:10:00,
2013-06-12 08:15:00,69.0,67.5,30.01,NNW,333,0.0,0.0,95,0.00,,CLR,0.00,VWS V14.01,2013-06-12 12:15:00,
2013-06-12 08:20:00,69.3,67.8,30.01,NNW,333,0.0,0.0,95,0.00,,CLR,0.00,VWS V14.01,2013-06-12 12:20:00,
2013-06-12 08:25:00,69.6,68.1,30.01,NNW,333,0.0,0.0,95,0.00,,CLR,0.00,VWS V14.01,2013-06-12 12:25:00,
2013-06-12 08:31:00,70.0,68.5,30.01,NNW,333,0.0,0.0,95,0.00,,CLR,0.00,VWS V14.01,2013-06-12 12:31:00,
2013-06-12 08:36:00,70.4,68.9,30.01,NNW,333,0.0,0.0,95,0.00,,CLR,0.00,VWS V14.01,2013-06-12 12:36:00,
2013-06-12 08:41:00,70.8,69.0,30.02,NNW,333,0.0,0.0,94,0.00,,CLR,0.00,VWS V14.01,2013-06-12 12:41:00,
2013-06-12 08:46:00,71.2,69.4,30.01,NNW,333,0.0,0.0,94,0.00,,CLR,0.00,VWS V14.01,2013-06-12 12:46:00,
2013-06-12 08:51:00,71.7,69.9,30.02,NNW,333,0.0,0.0,94,0.00,,CLR,0.00,VWS V14.01,2013-06-12 12:51:00,
2013-06-12 08:56:00,72.3,70.5,30.02,NNW,333,0.0,0.0,94,0.00,,CLR,0.00,VWS V14.01,2013-06-12 12:56:00,
2013-06-12 09:01:00,72.9,71.1,30.02,NNW,333,0.0,0.0,94,0.00,,CLR,0.00,VWS V14.01,2013-06-12 13:01:00,
2013-06-12 09:06:00,73.2,70.4,30.02,NNW,333,0.0,0.0,91,0.00,,CLR,0.00,VWS V14.01,2013-06-12 13:06:00,
2013-06-12 09:11:00,73.8,70.7,30.02,NNW,333,0.0,0.0,90,0.00,,CLR,0.00,VWS V14.01,2013-06-12 13:11:00,
2013-06-12 09:16:00,74.7,71.6,30.02,NNW,333,0.0,0.0,90,0.00,,CLR,0.00,VWS V14.01,2013-06-12 13:16:00,
2013-06-12 09:21:00,75.5,71.0,30.02,NNW,333,0.0,0.0,86,0.00,,CLR,0.00,VWS V14.01,2013-06-12 13:21:00,
2013-06-12 09:26:00,76.4,71.6,30.02,NNW,333,0.0,0.0,85,0.00,,CLR,0.00,VWS V14.01,2013-06-12 13:26:00,
2013-06-12 09:31:00,77.6,69.8,30.02,NNW,333,2.6,3.9,77,0.00,,CLR,0.00,VWS V14.01,2013-06-12 13:31:00,
2013-06-12 09:36:00,78.8,71.0,30.02,NNW,333,0.0,2.6,77,0.00,,CLR,0.00,VWS V14.01,2013-06-12 13:36:00,
2013-06-12 09:41:00,79.7,71.5,30.02,NNW,333,0.0,0.0,76,0.00,,CLR,0.00,VWS V14.01,2013-06-12 13:41:00,
2013-06-12 09:46:00,80.3,71.7,30.02,NNW,333,0.0,1.3,75,0.00,,CLR,0.00,VWS V14.01,2013-06-12 13:46:00,
2013-06-12 09:51:00,80.6,71.6,30.02,NNW,333,1.3,1.3,74,0.00,,CLR,0.00,VWS V14.01,2013-06-12 13:51:00,
2013-06-12 09:56:00,80.7,70.8,30.02,North,355,3.9,3.9,72,0.00,,CLR,0.00,VWS V14.01,2013-06-12 13:56:00,
2013-06-12 10:01:00,81.4,71.5,30.01,North,355,0.0,2.6,72,0.00,,CLR,0.00,VWS V14.01,2013-06-12 14:01:00,
2013-06-12 10:06:00,82.2,71.9,30.01,North,355,1.3,1.3,71,0.00,,CLR,0.00,VWS V14.01,2013-06-12 14:06:00,
2013-06-12 10:11:00,82.7,71.1,30.01,NE,55,0.0,3.9,68,0.00,,CLR,0.00,VWS V14.01,2013-06-12 14:11:00,
2013-06-12 10:16:00,83.2,71.1,30.01,NE,55,0.0,2.6,67,0.00,,CLR,0.00,VWS V14.01,2013-06-12 14:16:00,
2013-06-12 10:21:00,84.1,72.8,30.01,NE,55,0.0,2.6,69,0.00,,CLR,0.00,VWS V14.01,2013-06-12 14:21:00,
2013-06-12 10:26:00,85.1,71.6,30.01,NE,38,0.0,2.6,64,0.00,,CLR,0.00,VWS V14.01,2013-06-12 14:26:00,
2013-06-12 10:31:00,85.2,72.1,30.01,NE,38,1.3,2.6,65,0.00,,CLR,0.00,VWS V14.01,2013-06-12 14:31:00,
2013-06-12 10:36:00,84.7,70.2,30.01,WNW,296,0.0,5.2,62,0.00,,CLR,0.00,VWS V14.01,2013-06-12 14:36:00,
2013-06-12 10:41:00,84.0,70.5,30.01,WNW,296,0.0,2.6,64,0.00,,CLR,0.00,VWS V14.01,2013-06-12 14:41:00,
2013-06-12 10:46:00,83.6,71.5,30.01,WNW,296,0.0,1.3,67,0.00,,CLR,0.00,VWS V14.01,2013-06-12 14:46:00,
2013-06-12 10:51:00,83.8,71.7,30.02,WNW,295,1.3,2.6,67,0.00,,CLR,0.00,VWS V14.01,2013-06-12 14:51:00,
2013-06-12 10:56:00,84.2,72.1,30.01,WNW,295,0.0,2.6,67,0.00,,CLR,0.00,VWS V14.01,2013-06-12 14:56:00,
2013-06-12 11:01:00,84.1,72.0,30.01,WSW,258,1.3,2.6,67,0.00,,CLR,0.00,VWS V14.01,2013-06-12 15:01:00,
2013-06-12 11:06:00,83.4,70.9,30.02,WSW,252,3.9,5.2,66,0.00,,CLR,0.00,VWS V14.01,2013-06-12 15:06:00,
2013-06-12 11:11:00,82.6,71.4,30.02,WSW,252,1.3,3.9,69,0.00,,CLR,0.00,VWS V14.01,2013-06-12 15:11:00,
2013-06-12 11:17:00,82.2,71.4,30.02,WSW,250,3.9,3.9,70,0.00,,CLR,0.00,VWS V14.01,2013-06-12 15:17:00,
2013-06-12 11:22:00,82.1,71.3,30.02,NW,319,1.3,3.9,70,0.00,,CLR,0.00,VWS V14.01,2013-06-12 15:22:00,
2013-06-12 11:27:00,82.5,72.2,30.02,NW,319,0.0,1.3,71,0.00,,CLR,0.00,VWS V14.01,2013-06-12 15:27:00,
2013-06-12 11:32:00,84.2,72.1,30.02,NNW,336,1.3,1.3,67,0.00,,CLR,0.00,VWS V14.01,2013-06-12 15:32:00,
2013-06-12 11:37:00,84.7,70.7,30.02,NW,308,0.0,3.9,63,0.00,,CLR,0.00,VWS V14.01,2013-06-12 15:37:00,
2013-06-12 11:42:00,85.2,71.2,30.02,NW,307,1.3,2.6,63,0.00,,CLR,0.00,VWS V14.01,2013-06-12 15:42:00,
2013-06-12 11:47:00,85.9,71.4,30.02,NNW,342,2.6,5.2,62,0.00,,CLR,0.00,VWS V14.01,2013-06-12 15:47:00,
2013-06-12 11:52:00,86.1,70.6,30.03,East,88,1.3,2.6,60,0.00,,CLR,0.00,VWS V14.01,2013-06-12 15:52:00,
2013-06-12 11:57:00,87.0,70.4,30.02,WSW,237,6.5,6.5,58,0.00,,CLR,0.00,VWS V14.01,2013-06-12 15:57:00,
2013-06-12 12:02:00,85.7,70.2,30.02,SW,225,3.9,6.5,60,0.00,,CLR,0.00,VWS V14.01,2013-06-12 16:02:00,
2013-06-12 12:07:00,85.3,70.3,30.02,SW,219,5.2,7.8,61,0.00,,CLR,0.00,VWS V14.01,2013-06-12 16:07:00,
2013-06-12 12:12:00,85.5,71.0,30.02,SSW,209,0.0,6.5,62,0.00,,CLR,0.00,VWS V14.01,2013-06-12 16:12:00,
2013-06-12 12:17:00,85.9,71.4,30.02,SSW,204,2.6,9.1,62,0.00,,CLR,0.00,VWS V14.01,2013-06-12 16:17:00,
2013-06-12 12:22:00,85.9,70.4,30.02,South,188,5.2,7.8,60,0.00,,CLR,0.00,VWS V14.01,2013-06-12 16:22:00,
2013-06-12 12:27:00,85.8,69.3,30.01,West,259,9.1,11.7,58,0.00,,CLR,0.00,VWS V14.01,2013-06-12 16:27:00,
2013-06-12 12:32:00,85.7,70.2,30.01,WSW,249,9.1,10.4,60,0.00,,CLR,0.00,VWS V14.01,2013-06-12 16:32:00,
2013-06-12 12:37:00,86.2,72.1,30.01,NNW,329,0.0,3.9,63,0.00,,CLR,0.00,VWS V14.01,2013-06-12 16:37:00,
2013-06-12 12:42:00,86.4,69.9,30.01,WSW,252,2.6,9.1,58,0.00,,CLR,0.00,VWS V14.01,2013-06-12 16:42:00,
2013-06-12 12:47:00,86.6,71.1,30.01,WSW,254,6.5,6.5,60,0.00,,CLR,0.00,VWS V14.01,2013-06-12 16:47:00,
2013-06-12 12:52:00,86.3,70.8,30.01,SSW,200,5.2,9.1,60,0.00,,CLR,0.00,VWS V14.01,2013-06-12 16:52:00,
2013-06-12 12:57:00,86.5,70.5,30.01,SSE,152,1.3,7.8,59,0.00,,CLR,0.00,VWS V14.01,2013-06-12 16:57:00,
2013-06-12 13:02:00,86.5,71.5,30.01,West,260,9.1,11.7,61,0.00,,CLR,0.00,VWS V14.01,2013-06-12 17:02:00,
2013-06-12 13:07:00,86.6,73.0,30.01,South,180,1.3,7.8,64,0.00,,CLR,0.00,VWS V14.01,2013-06-12 17:07:00,
2013-06-12 13:12:00,86.8,71.3,30.00,WSW,242,10.4,14.3,60,0.00,,CLR,0.00,VWS V14.01,2013-06-12 17:12:00,
2013-06-12 13:17:00,86.4,71.4,30.00,West,274,13.0,13.0,61,0.00,,CLR,0.00,VWS V14.01,2013-06-12 17:17:00,
2013-06-12 13:22:00,86.6,71.6,30.00,SW,233,1.3,6.5,61,0.00,,CLR,0.00,VWS V14.01,2013-06-12 17:22:00,
2013-06-12 13:27:00,87.0,72.9,30.00,WSW,248,9.1,10.4,63,0.00,,CLR,0.00,VWS V14.01,2013-06-12 17:27:00,
2013-06-12 13:32:00,87.1,73.0,30.00,WSW,257,5.2,10.4,63,0.00,,CLR,0.00,VWS V14.01,2013-06-12 17:32:00,
2013-06-12 13:37:00,86.8,70.3,29.99,SSW,205,7.8,16.9,58,0.00,,CLR,0.00,VWS V14.01,2013-06-12 17:37:00,
2013-06-12 13:42:00,86.0,71.5,29.99,WSW,254,3.9,9.1,62,0.00,,CLR,0.00,VWS V14.01,2013-06-12 17:42:00,
2013-06-12 13:47:00,85.8,72.7,29.99,SW,235,1.3,9.1,65,0.00,,CLR,0.00,VWS V14.01,2013-06-12 17:47:00,
2013-06-12 13:52:00,85.7,73.5,29.99,SW,228,0.0,3.9,67,0.00,,CLR,0.00,VWS V14.01,2013-06-12 17:52:00,
2013-06-12 13:57:00,85.5,73.7,29.99,West,261,2.6,6.5,68,0.00,,CLR,0.00,VWS V14.01,2013-06-12 17:57:00,
2013-06-12 14:02:00,85.4,73.6,29.99,SSE,168,5.2,11.7,68,0.00,,CLR,0.00,VWS V14.01,2013-06-12 18:02:00,
2013-06-12 14:07:00,85.5,73.7,29.99,South,169,1.3,9.1,68,0.00,,CLR,0.00,VWS V14.01,2013-06-12 18:07:00,
2013-06-12 14:12:00,86.0,73.8,29.98,WSW,240,5.2,9.1,67,0.00,,CLR,0.00,VWS V14.01,2013-06-12 18:12:00,
2013-06-12 14:17:00,85.9,73.2,29.99,SSW,206,1.3,6.5,66,0.00,,CLR,0.00,VWS V14.01,2013-06-12 18:17:00,
2013-06-12 14:22:00,86.5,73.3,29.98,South,190,5.2,9.1,65,0.00,,CLR,0.00,VWS V14.01,2013-06-12 18:22:00,
2013-06-12 14:27:00,87.0,74.7,29.98,WSW,248,5.2,5.2,67,0.00,,CLR,0.00,VWS V14.01,2013-06-12 18:27:00,
2013-06-12 14:32:00,87.6,74.8,29.98,WSW,252,5.2,11.7,66,0.00,,CLR,0.00,VWS V14.01,2013-06-12 18:32:00,
2013-06-12 14:37:00,87.6,75.3,29.98,South,189,3.9,6.5,67,0.00,,CLR,0.00,VWS V14.01,2013-06-12 18:37:00,
2013-06-12 14:42:00,88.0,75.2,29.98,WSW,258,3.9,11.7,66,0.00,,CLR,0.00,VWS V14.01,2013-06-12 18:42:00,
2013-06-12 14:47:00,88.4,75.6,29.98,SW,221,6.5,9.1,66,0.00,,CLR,0.00,VWS V14.01,2013-06-12 18:47:00,
2013-06-12 14:52:00,89.1,75.8,29.98,NW,322,1.3,6.5,65,0.00,,CLR,0.00,VWS V14.01,2013-06-12 18:52:00,
2013-06-12 14:58:00,89.8,75.5,29.98,WSW,247,2.6,10.4,63,0.00,,CLR,0.00,VWS V14.01,2013-06-12 18:58:00,
2013-06-12 15:03:00,89.5,75.7,29.98,WSW,244,5.2,9.1,64,0.00,,CLR,0.00,VWS V14.01,2013-06-12 19:03:00,
2013-06-12 15:08:00,88.7,75.9,29.98,West,269,3.9,11.7,66,0.00,,CLR,0.00,VWS V14.01,2013-06-12 19:08:00,
2013-06-12 15:13:00,88.5,76.2,29.98,West,272,5.2,9.1,67,0.00,,CLR,0.00,VWS V14.01,2013-06-12 19:13:00,
2013-06-12 15:18:00,88.3,76.4,29.98,WNW,288,0.0,5.2,68,0.00,,CLR,0.00,VWS V14.01,2013-06-12 19:18:00,
2013-06-12 15:23:00,88.6,76.7,29.98,SW,225,1.3,11.7,68,0.00,,CLR,0.00,VWS V14.01,2013-06-12 19:23:00,
2013-06-12 15:28:00,88.6,76.2,29.97,NNW,329,1.3,3.9,67,0.00,,CLR,0.00,VWS V14.01,2013-06-12 19:28:00,
2013-06-12 15:33:00,89.5,77.1,29.97,South,175,3.9,5.2,67,0.00,,CLR,0.00,VWS V14.01,2013-06-12 19:33:00,
2013-06-12 15:38:00,89.6,77.2,29.97,NW,308,3.9,9.1,67,0.00,,CLR,0.00,VWS V14.01,2013-06-12 19:38:00,
2013-06-12 15:43:00,89.4,77.0,29.97,West,259,9.1,9.1,67,0.00,,CLR,0.00,VWS V14.01,2013-06-12 19:43:00,
2013-06-12 15:48:00,89.3,76.9,29.97,SSW,213,7.8,7.8,67,0.00,,CLR,0.00,VWS V14.01,2013-06-12 19:48:00,
2013-06-12 15:53:00,89.3,77.4,29.96,NW,325,2.6,11.7,68,0.00,,CLR,0.00,VWS V14.01,2013-06-12 19:53:00,
2013-06-12 15:58:00,89.2,76.8,29.96,SSW,199,0.0,3.9,67,0.00,,CLR,0.00,VWS V14.01,2013-06-12 19:58:00,
2013-06-12 16:03:00,89.9,77.5,29.96,SSW,202,1.3,3.9,67,0.00,,CLR,0.00,VWS V14.01,2013-06-12 20:03:00,
2013-06-12 16:08:00,90.2,77.3,29.96,WSW,252,2.6,3.9,66,0.00,,CLR,0.00,VWS V14.01,2013-06-12 20:08:00,
2013-06-12 16:13:00,89.6,77.6,29.96,West,261,3.9,3.9,68,0.00,,CLR,0.00,VWS V14.01,2013-06-12 20:13:00,
2013-06-12 16:18:00,89.3,78.2,29.96,West,259,1.3,5.2,70,0.00,,CLR,0.00,VWS V14.01,2013-06-12 20:18:00,
2013-06-12 16:23:00,89.7,78.2,29.96,SW,235,5.2,5.2,69,0.00,,CLR,0.00,VWS V14.01,2013-06-12 20:23:00,
2013-06-12 16:28:00,89.4,77.0,29.95,SW,226,5.2,7.8,67,0.00,,CLR,0.00,VWS V14.01,2013-06-12 20:28:00,
2013-06-12 16:33:00,89.6,77.2,29.95,SSW,207,0.0,3.9,67,0.00,,CLR,0.00,VWS V14.01,2013-06-12 20:33:00,
2013-06-12 16:38:00,89.7,76.8,29.95,WSW,239,3.9,10.4,66,0.00,,CLR,0.00,VWS V14.01,2013-06-12 20:38:00,
2013-06-12 16:43:00,89.5,76.7,29.95,NNE,28,1.3,7.8,66,0.00,,CLR,0.00,VWS V14.01,2013-06-12 20:43:00,
2013-06-12 16:48:00,89.7,76.8,29.95,WSW,238,5.2,6.5,66,0.00,,CLR,0.00,VWS V14.01,2013-06-12 20:48:00,
2013-06-12 16:53:00,89.8,77.8,29.95,NNW,328,6.5,6.5,68,0.00,,CLR,0.00,VWS V14.01,2013-06-12 20:53:00,
2013-06-12 16:58:00,89.6,77.6,29.94,WNW,302,2.6,3.9,68,0.00,,CLR,0.00,VWS V14.01,2013-06-12 20:58:00,
2013-06-12 17:03:00,90.0,78.9,29.94,SW,233,2.6,6.5,70,0.00,,CLR,0.00,VWS V14.01,2013-06-12 21:03:00,
2013-06-12 17:08:00,90.3,78.8,29.94,WSW,237,6.5,9.1,69,0.00,,CLR,0.00,VWS V14.01,2013-06-12 21:08:00,
2013-06-12 17:13:00,90.6,78.6,29.94,SSW,193,1.3,6.5,68,0.00,,CLR,0.00,VWS V14.01,2013-06-12 21:13:00,
2013-06-12 17:18:00,90.4,77.9,29.94,SW,222,2.6,13.0,67,0.00,,CLR,0.00,VWS V14.01,2013-06-12 21:18:00,
2013-06-12 17:23:00,90.5,78.5,29.94,WSW,251,1.3,5.2,68,0.00,,CLR,0.00,VWS V14.01,2013-06-12 21:23:00,
2013-06-12 17:28:00,90.6,77.2,29.94,WNW,286,2.6,9.1,65,0.00,,CLR,0.00,VWS V14.01,2013-06-12 21:28:00,
2013-06-12 17:33:00,90.1,77.2,29.94,West,281,1.3,11.7,66,0.00,,CLR,0.00,VWS V14.01,2013-06-12 21:33:00,
2013-06-12 17:38:00,89.8,76.5,29.93,WSW,238,5.2,11.7,65,0.00,,CLR,0.00,VWS V14.01,2013-06-12 21:38:00,
2013-06-12 17:43:00,89.7,77.3,29.93,South,173,3.9,5.2,67,0.00,,CLR,0.00,VWS V14.01,2013-06-12 21:43:00,
2013-06-12 17:48:00,90.3,76.9,29.93,WSW,247,2.6,11.7,65,0.00,,CLR,0.00,VWS V14.01,2013-06-12 21:48:00,
2013-06-12 17:53:00,90.3,77.4,29.93,West,269,5.2,7.8,66,0.00,,CLR,0.00,VWS V14.01,2013-06-12 21:53:00,
2013-06-12 17:59:00,90.0,76.7,29.93,West,279,2.6,9.1,65,0.00,,CLR,0.00,VWS V14.01,2013-06-12 21:59:00,
2013-06-12 18:04:00,89.7,76.4,29.93,West,267,9.1,9.1,65,0.00,,CLR,0.00,VWS V14.01,2013-06-12 22:04:00,
2013-06-12 18:09:00,89.7,76.8,29.93,SSW,212,2.6,5.2,66,0.00,,CLR,0.00,VWS V14.01,2013-06-12 22:09:00,
2013-06-12 18:14:00,90.0,77.1,29.92,North,355,1.3,9.1,66,0.00,,CLR,0.00,VWS V14.01,2013-06-12 22:14:00,
2013-06-12 18:19:00,89.7,76.8,29.92,West,269,2.6,7.8,66,0.00,,CLR,0.00,VWS V14.01,2013-06-12 22:19:00,
2013-06-12 18:24:00,89.5,77.1,29.92,SW,230,5.2,7.8,67,0.00,,CLR,0.00,VWS V14.01,2013-06-12 22:24:00,
2013-06-12 18:29:00,88.6,77.1,29.92,SW,234,5.2,9.1,69,0.00,,CLR,0.00,VWS V14.01,2013-06-12 22:29:00,
2013-06-12 18:34:00,87.9,76.9,29.92,WSW,244,3.9,5.2,70,0.00,,CLR,0.00,VWS V14.01,2013-06-12 22:34:00,
2013-06-12 18:39:00,87.6,76.6,29.93,SW,224,5.2,7.8,70,0.00,,CLR,0.00,VWS V14.01,2013-06-12 22:39:00,
2013-06-12 18:44:00,87.4,76.4,29.93,SW,217,2.6,9.1,70,0.00,,CLR,0.00,VWS V14.01,2013-06-12 22:44:00,
2013-06-12 18:49:00,87.3,76.8,29.93,SW,234,1.3,3.9,71,0.00,,CLR,0.00,VWS V14.01,2013-06-12 22:49:00,
2013-06-12 18:54:00,87.4,76.8,29.93,South,179,3.9,5.2,71,0.00,,CLR,0.00,VWS V14.01,2013-06-12 22:54:00,
2013-06-12 18:59:00,87.4,76.8,29.93,SW,230,3.9,5.2,71,0.00,,CLR,0.00,VWS V14.01,2013-06-12 22:59:00,
2013-06-12 19:04:00,87.3,77.2,29.93,West,267,3.9,3.9,72,0.00,,CLR,0.00,VWS V14.01,2013-06-12 23:04:00,
2013-06-12 19:09:00,87.0,76.9,29.93,WSW,249,3.9,3.9,72,0.00,,CLR,0.00,VWS V14.01,2013-06-12 23:09:00,
2013-06-12 19:14:00,87.1,77.0,29.93,WSW,249,0.0,2.6,72,0.00,,CLR,0.00,VWS V14.01,2013-06-12 23:14:00,
2013-06-12 19:19:00,87.6,77.9,29.93,WSW,249,0.0,1.3,73,0.00,,CLR,0.00,VWS V14.01,2013-06-12 23:19:00,
2013-06-12 19:24:00,88.0,77.4,29.93,WSW,249,1.3,3.9,71,0.00,,CLR,0.00,VWS V14.01,2013-06-12 23:24:00,
2013-06-12 19:29:00,88.0,77.8,29.92,WSW,249,2.6,2.6,72,0.00,,CLR,0.00,VWS V14.01,2013-06-12 23:29:00,
2013-06-12 19:34:00,87.8,77.7,29.93,WSW,249,3.9,5.2,72,0.00,,CLR,0.00,VWS V14.01,2013-06-12 23:34:00,
2013-06-12 19:39:00,87.4,77.3,29.93,WSW,240,2.6,7.8,72,0.00,,CLR,0.00,VWS V14.01,2013-06-12 23:39:00,
2013-06-12 19:44:00,87.2,77.5,29.93,WSW,240,2.6,5.2,73,0.00,,CLR,0.00,VWS V14.01,2013-06-12 23:44:00,
2013-06-12 19:49:00,87.1,77.4,29.93,WSW,246,3.9,5.2,73,0.00,,CLR,0.00,VWS V14.01,2013-06-12 23:49:00,
2013-06-12 19:54:00,86.9,77.6,29.93,WSW,242,6.5,6.5,74,0.00,,CLR,0.00,VWS V14.01,2013-06-12 23:54:00,
2013-06-12 19:59:00,86.7,77.0,29.93,WSW,257,1.3,5.2,73,0.00,,CLR,0.00,VWS V14.01,2013-06-12 23:59:00,
2013-06-12 20:04:00,86.7,77.8,29.92,WSW,257,2.6,2.6,75,0.00,,CLR,0.00,VWS V14.01,2013-06-13 00:04:00,
2013-06-12 20:09:00,86.4,77.1,29.93,WSW,242,1.3,3.9,74,0.00,,CLR,0.00,VWS V14.01,2013-06-13 00:09:00,
2013-06-12 20:14:00,86.1,76.8,29.92,SW,236,1.3,3.9,74,0.00,,CLR,0.00,VWS V14.01,2013-06-13 00:14:00,
2013-06-12 20:19:00,85.9,77.1,29.93,WSW,248,0.0,3.9,75,0.00,,CLR,0.00,VWS V14.01,2013-06-13 00:19:00,
2013-06-12 20:24:00,85.7,76.9,29.93,SW,234,3.9,3.9,75,0.00,,CLR,0.00,VWS V14.01,2013-06-13 00:24:00,
2013-06-12 20:29:00,85.5,76.7,29.93,SW,234,3.9,5.2,75,0.00,,CLR,0.00,VWS V14.01,2013-06-13 00:29:00,
2013-06-12 20:34:00,85.4,77.0,29.93,SW,234,2.6,5.2,76,0.00,,CLR,0.00,VWS V14.01,2013-06-13 00:34:00,
2013-06-12 20:39:00,85.1,76.7,29.93,SW,234,2.6,5.2,76,0.00,,CLR,0.00,VWS V14.01,2013-06-13 00:39:00,
2013-06-12 20:44:00,84.8,76.8,29.93,SW,234,1.3,1.3,77,0.00,,CLR,0.00,VWS V14.01,2013-06-13 00:44:00,
2013-06-12 20:49:00,84.7,76.7,29.93,SW,234,0.0,3.9,77,0.00,,CLR,0.00,VWS V14.01,2013-06-13 00:49:00,
2013-06-12 20:54:00,84.7,76.7,29.92,SW,234,1.3,2.6,77,0.00,,CLR,0.00,VWS V14.01,2013-06-13 00:54:00,
2013-06-12 20:59:00,84.5,76.5,29.92,SW,234,1.3,2.6,77,0.00,,CLR,0.00,VWS V14.01,2013-06-13 00:59:00,
2013-06-12 21:04:00,84.2,76.6,29.92,WSW,240,0.0,5.2,78,0.00,,CLR,0.00,VWS V14.01,2013-06-13 01:04:00,
2013-06-12 21:09:00,84.2,76.6,29.92,WSW,240,1.3,3.9,78,0.00,,CLR,0.00,VWS V14.01,2013-06-13 01:09:00,
2013-06-12 21:14:00,84.2,76.6,29.92,WSW,238,3.9,3.9,78,0.00,,CLR,0.00,VWS V14.01,2013-06-13 01:14:00,
2013-06-12 21:20:00,84.0,76.4,29.92,WSW,238,1.3,3.9,78,0.00,,CLR,0.00,VWS V14.01,2013-06-13 01:20:00,
2013-06-12 21:25:00,83.6,76.4,29.92,WSW,238,1.3,3.9,79,0.00,,CLR,0.00,VWS V14.01,2013-06-13 01:25:00,
2013-06-12 21:30:00,83.4,76.2,29.92,WSW,238,1.3,3.9,79,0.00,,CLR,0.00,VWS V14.01,2013-06-13 01:30:00,
2013-06-12 21:35:00,83.3,76.1,29.92,SSW,209,2.6,3.9,79,0.00,,CLR,0.00,VWS V14.01,2013-06-13 01:35:00,
2013-06-12 21:40:00,83.2,76.4,29.92,SSW,209,3.9,3.9,80,0.00,,CLR,0.00,VWS V14.01,2013-06-13 01:40:00,
2013-06-12 21:45:00,82.9,76.1,29.92,SSW,209,1.3,3.9,80,0.00,,CLR,0.00,VWS V14.01,2013-06-13 01:45:00,
2013-06-12 21:50:00,82.8,76.0,29.92,SSW,209,1.3,3.9,80,0.00,,CLR,0.00,VWS V14.01,2013-06-13 01:50:00,
2013-06-12 21:55:00,82.8,76.0,29.92,SSW,209,3.9,3.9,80,0.00,,CLR,0.00,VWS V14.01,2013-06-13 01:55:00,
2013-06-12 22:00:00,82.5,76.1,29.92,SSW,200,2.6,6.5,81,0.00,,CLR,0.00,VWS V14.01,2013-06-13 02:00:00,
2013-06-12 22:05:00,82.3,75.9,29.93,SW,234,2.6,3.9,81,0.00,,CLR,0.00,VWS V14.01,2013-06-13 02:05:00,
2013-06-12 22:10:00,82.2,76.2,29.93,WSW,238,1.3,6.5,82,0.00,,CLR,0.00,VWS V14.01,2013-06-13 02:10:00,
2013-06-12 22:15:00,82.1,76.1,29.93,SW,234,2.6,5.2,82,0.00,,CLR,0.00,VWS V14.01,2013-06-13 02:15:00,
2013-06-12 22:20:00,82.0,76.0,29.93,SSW,212,2.6,5.2,82,0.00,,CLR,0.00,VWS V14.01,2013-06-13 02:20:00,
2013-06-12 22:25:00,81.9,75.5,29.93,SW,217,6.5,6.5,81,0.00,,CLR,0.00,VWS V14.01,2013-06-13 02:25:00,
2013-06-12 22:30:00,82.0,75.6,29.93,SW,225,2.6,5.2,81,0.00,,CLR,0.00,VWS V14.01,2013-06-13 02:30:00,
2013-06-12 22:35:00,82.0,75.6,29.93,SW,219,2.6,2.6,81,0.00,,CLR,0.00,VWS V14.01,2013-06-13 02:35:00,
2013-06-12 22:40:00,81.9,75.5,29.93,SW,232,2.6,5.2,81,0.00,,CLR,0.00,VWS V14.01,2013-06-13 02:40:00,
2013-06-12 22:45:00,81.7,75.7,29.93,SW,230,2.6,2.6,82,0.00,,CLR,0.00,VWS V14.01,2013-06-13 02:45:00,
2013-06-12 22:50:00,81.5,75.5,29.93,SW,225,1.3,6.5,82,0.00,,CLR,0.00,VWS V14.01,2013-06-13 02:50:00,
2013-06-12 22:55:00,81.3,75.3,29.93,SW,233,1.3,5.2,82,0.00,,CLR,0.00,VWS V14.01,2013-06-13 02:55:00,
2013-06-12 23:00:00,81.2,75.6,29.93,WSW,241,5.2,6.5,83,0.00,,CLR,0.00,VWS V14.01,2013-06-13 03:00:00,
2013-06-12 23:05:00,80.9,75.3,29.92,WSW,240,2.6,5.2,83,0.00,,CLR,0.00,VWS V14.01,2013-06-13 03:05:00,
2013-06-12 23:10:00,80.8,75.2,29.92,WSW,251,1.3,9.1,83,0.00,,CLR,0.00,VWS V14.01,2013-06-13 03:10:00,
2013-06-12 23:15:00,80.7,75.1,29.93,WSW,248,3.9,9.1,83,0.00,,CLR,0.00,VWS V14.01,2013-06-13 03:15:00,
2013-06-12 23:20:00,80.7,75.1,29.92,WSW,247,2.6,6.5,83,0.00,,CLR,0.00,VWS V14.01,2013-06-13 03:20:00,
2013-06-12 23:25:00,80.7,75.1,29.92,SSW,195,5.2,7.8,83,0.00,,CLR,0.00,VWS V14.01,2013-06-13 03:25:00,
2013-06-12 23:30:00,80.8,75.2,29.92,WSW,239,5.2,9.1,83,0.00,,CLR,0.00,VWS V14.01,2013-06-13 03:30:00,
2013-06-12 23:35:00,80.9,75.3,29.92,SW,222,1.3,6.5,83,0.00,,CLR,0.00,VWS V14.01,2013-06-13 03:35:00,
2013-06-12 23:40:00,80.8,75.2,29.92,WSW,242,0.0,7.8,83,0.00,,CLR,0.00,VWS V14.01,2013-06-13 03:40:00,
2013-06-12 23:45:00,80.8,75.2,29.91,WSW,245,3.9,11.7,83,0.00,,CLR,0.00,VWS V14.01,2013-06-13 03:45:00,
2013-06-12 23:50:00,80.7,75.1,29.91,WSW,256,6.5,10.4,83,0.00,,CLR,0.00,VWS V14.01,2013-06-13 03:50:00,
2013-06-12 23:55:00,80.6,75.0,29.91,SW,232,6.5,6.5,83,0.00,,CLR,0.00,VWS V14.01,2013-06-13 03:55:00,